Lynchburg, VA

4:43 AM EST on November 22, 2019 (GMT -0500)
Lynchburg Regional-Glenn

Weather History for KLYH - September, 2019

Change the Weather History Date:

Sunday, September 8, 2019

  Actual Average Record
Temperature  
Mean Temperature 75 °F 70 °F  
Max Temperature 89 °F 81 °F 97 °F (1939)
Min Temperature 60 °F 59 °F 45 °F (2017)
Degree Days  
Heating Degree Days 0 1  
Month to date heating degree days 0 1  
Since 1 July heating degree days 0 4  
Cooling Degree Days 10 5  
Month to date cooling degree days 93 50  
Year to date cooling degree days 1308 948  
Growing Degree Days 24 (Base 50)    
Moisture  
Dew Point 58 °F    
Average Humidity 63    
Maximum Humidity 90    
Minimum Humidity 36    
Precipitation  
Precipitation 0.00 in 0.13 in 2.27 in (2004)
Month to date precipitation T 1.05  
Year to date precipitation 27.58 28.98  
Snow  
Snow 0.00 in - - ()
Month to date snowfall 0.0  
Since 1 July snowfall 0.0  
Since 1 September snowfall 0.0  
Snow Depth 0.00 in    
Sea Level Pressure  
Sea Level Pressure 30.04 in    
Wind  
Wind Speed 4 mph (North)    
Max Wind Speed 12 mph    
Max Gust Speed 16 mph    
Visibility 10 miles    
Events      
T = Trace of Precipitation, MM = Missing Value Source: NWS Daily Summary

Daily Weather History Graph

Daily Weather History Graph

Search for Another Location

Airport or City:

Astronomy

Sep. 08, 2019 Rise Set
Actual Time 6:52 AM EDT 7:35 PM EDT
Civil Twilight 6:26 AM EDT 8:01 PM EDT
Nautical Twilight 5:55 AM EDT 8:32 PM EDT
Astronomical Twilight 5:23 AM EDT 9:04 PM EDT
Moon 4:36 PM EDT (9/8) 1:37 AM EDT (9/8)
Length of Visible Light 13h 35m
Length of Day
12h 42m
Waxing Gibbous, 75% of the Moon is Illuminated
Sep 8
Waxing Gibbous
Sep 14
Full
Sep 21
Last Quarter
Sep 28
New
Oct 5
First Quarter

Hourly Weather History & Observations

Time (EDT) Temp. Heat Index Dew Point Humidity Pressure Visibility Wind Dir Wind Speed Gust Speed Precip Events Conditions
12:54 AM 66.0 °F - 57.9 °F 75% 30.01 in 10.0 mi Calm Calm - N/A   Clear
1:54 AM 63.0 °F - 57.9 °F 84% 30.01 in 10.0 mi Calm Calm - N/A   Clear
2:54 AM 63.0 °F - 57.0 °F 81% 30.01 in 10.0 mi Calm Calm - N/A   Clear
3:54 AM 62.1 °F - 57.9 °F 86% 30.01 in 10.0 mi NNW 3.5 mph - N/A   Clear
4:54 AM 62.1 °F - 57.9 °F 86% 30.00 in 10.0 mi Variable 3.5 mph - N/A   Clear
5:54 AM 61.0 °F - 57.0 °F 87% 30.02 in 10.0 mi NNW 3.5 mph - N/A   Clear
6:54 AM 63.0 °F - 57.0 °F 81% 30.03 in 10.0 mi North 3.5 mph - N/A   Clear
7:54 AM 66.0 °F - 57.9 °F 75% 30.06 in 10.0 mi North 5.8 mph - N/A   Clear
8:54 AM 71.1 °F - 57.9 °F 63% 30.08 in 10.0 mi Variable 3.5 mph - N/A   Clear
9:54 AM 75.0 °F - 57.9 °F 55% 30.08 in 10.0 mi North 8.1 mph - N/A   Clear
10:54 AM 79.0 °F - 55.9 °F 45% 30.08 in 10.0 mi NE 6.9 mph - N/A   Scattered Clouds
11:54 AM 80.1 °F 80.0 °F 54.0 °F 40% 30.06 in 10.0 mi Variable 3.5 mph - N/A   Clear
12:54 PM 84.9 °F 83.7 °F 55.9 °F 37% 30.05 in 10.0 mi Variable 5.8 mph - N/A   Clear
1:54 PM 84.9 °F 83.9 °F 57.0 °F 38% 30.04 in 10.0 mi Calm Calm - N/A   Partly Cloudy
2:54 PM 87.1 °F 86.1 °F 57.9 °F 37% 30.03 in 10.0 mi Variable 4.6 mph - N/A   Scattered Clouds
3:54 PM 87.1 °F 86.5 °F 59.0 °F 39% 30.01 in 10.0 mi Variable 5.8 mph - N/A   Clear
4:54 PM 87.1 °F 86.1 °F 57.9 °F 37% 30.00 in 10.0 mi WSW 3.5 mph - N/A   Clear
5:54 PM 87.1 °F 85.9 °F 57.0 °F 36% 30.01 in 10.0 mi WSW 3.5 mph - N/A   Clear
6:54 PM 82.0 °F 83.1 °F 63.0 °F 52% 30.02 in 10.0 mi Calm Calm - N/A   Clear
7:54 PM 79.0 °F - 61.0 °F 54% 30.04 in 10.0 mi East 5.8 mph - N/A   Clear
8:54 PM 72.0 °F - 61.0 °F 68% 30.06 in 10.0 mi Calm Calm - N/A   Clear
9:54 PM 71.1 °F - 61.0 °F 70% 30.07 in 10.0 mi NE 3.5 mph - N/A   Clear
10:54 PM 70.0 °F - 62.1 °F 76% 30.08 in 10.0 mi Calm Calm - N/A   Clear
11:54 PM 73.0 °F - 62.1 °F 68% 30.09 in 10.0 mi NNE 8.1 mph - N/A   Partly Cloudy